Location: Namasale
(1.5000°N, 32.6167°E)
Time: 16:13:03
(UTC+00:00)

S-56A Canister/Altair - Visible Passes

Search period start: 11 April 2021 00:00
Search period end: 21 April 2021 00:00
Orbit: 632 x 2500 km, 38.9° (Epoch: 10 April)

Date Brightness Start Highest point End Pass type
(mag) Time Alt. Az. Time Alt. Az. Time Alt. Az.
11 Apr 10.4 17:59:23 10° SSW 18:06:36 24° SSE 18:06:36 24° SSE visible
12 Apr 10.3 17:26:01 10° SSW 17:35:40 24° SSE 17:36:06 24° SSE visible
12 Apr 11.0 19:30:57 10° SW 19:33:34 18° SW 19:33:34 18° SW visible
13 Apr 10.3 16:52:41 10° SSW 17:02:10 22° SSE 17:05:43 19° SE visible
13 Apr 10.3 18:57:17 10° SW 19:03:11 31° SW 19:03:11 31° SW visible
14 Apr 10.5 16:19:25 10° SSW 16:28:35 20° SSE 16:35:27 12° ESE visible
14 Apr 9.7 18:23:37 10° SW 18:32:56 48° SSW 18:32:56 48° SSW visible
15 Apr 9.3 17:50:00 10° SW 18:02:48 55° SE 18:02:48 55° SE visible
15 Apr 11.1 19:57:57 10° WSW 20:00:19 17° WSW 20:00:19 17° WSW visible
16 Apr 9.5 17:16:25 10° SSW 17:29:32 49° SE 17:32:50 40° ESE visible
16 Apr 10.4 19:23:49 10° WSW 19:30:20 32° W 19:30:20 32° W visible
17 Apr 9.9 16:42:52 10° SSW 16:56:06 44° SE 17:02:59 22° E visible
17 Apr 9.6 18:49:46 10° WSW 19:00:31 55° WNW 19:00:31 55° WNW visible
18 Apr 10.1 16:09:24 10° SSW 16:22:35 39° SE 16:32:43 10° E visible
18 Apr 9.3 18:15:47 10° SW 18:28:59 70° NW 18:30:48 60° N visible
19 Apr 9.4 17:41:52 10° SW 17:55:48 80° NW 18:01:13 34° NE visible
19 Apr 10.9 19:53:31 10° W 19:58:46 18° WNW 19:58:46 18° WNW visible
20 Apr 9.5 17:08:02 10° SW 17:22:31 89° SE 17:31:43 14° NE visible
20 Apr 10.6 19:18:37 10° W 19:27:36 25° NW 19:29:16 23° NNW visible
